Wind_Speed
48 50 52 54 56 57 59 60 61 61 62 64 65 66 66 67 67 68 68 68 68 68 68 68 68 67 67 67 67 67 66 66 65 65 64 64 63 63
53 55 57 59 60 61 62 63 64 65 65 65 66 66 67 67 67 66 66 66 66 65 65 64 63 62 62 61 61 61 60 60 60 60 60 60 60 60
58 60 61 62 63 64 65 65 65 65 65 64 65 65 65 65 64 64 63 62 62 61 60 59 59 59 59 58 57 56 55 55 55 55 55 55 55 56
62 63 63 64 64 64 65 64 64 63 63 62 62 62 62 62 61 60 59 58 57 56 55 55 54 54 53 51 50 49 48 47 47 47 47 48 48 49
63 63 63 64 64 64 64 63 62 62 61 60 59 59 58 58 55 53 53 52 51 50 49 49 48 47 44 43 42 41 41 41 41 42 42 43 43 44
62 62 61 61 61 61 60 59 58 58 56 55 54 53 52 50 48 46 45 45 45 44 43 41 39 38 37 37 37 37 37 38 38 38 38 39 39 39
60 60 60 60 59 58 56 55 54 52 51 49 48 47 45 43 42 40 39 38 38 37 36 35 34 33 33 32 33 33 34 34 34 34 34 34 35 36
58 57 56 55 54 52 50 48 47 45 43 42 40 38 37 36 35 34 33 31 30 30 30 31 31 31 30 30 30 31 31 31 31 31 31 31 32 32
52 50 49 47 45 43 42 40 38 37 35 32 31 31 30 30 28 28 27 27 26 26 26 28 29 29 28 28 28 29 29 28 28 29 29 29 29 29
45 43 41 39 36 34 32 31 29 27 25 24 24 24 23 22 22 22 22 23 24 24 24 25 26 26 26 26 26 26 26 26 26 26 27 27 27 27
37 34 31 29 26 24 23 21 20 19 18 18 18 17 17 17 18 19 20 20 21 22 23 24 25 25 25 25 24 24 23 23 24 24 24 24 24 24
27 24 22 20 18 17 16 15 15 15 15 15 14 14 15 16 17 18 19 20 20 21 22 23 24 24 24 25 24 23 23 22 22 21 20 19 19 19
19 17 15 14 13 12 12 11 12 13 13 13 14 15 16 17 18 19 19 20 20 21 22 23 23 23 23 23 23 22 21 21 20 19 18 16 15 15
14 13 11 11 10 10 10 10 11 12 12 13 14 16 17 17 18 18 19 20 20 21 21 22 22 22 22 22 21 21 21 20 19 17 16 14 13 12
11 10 9 9 10 10 10 11 11 12 13 14 15 16 16 17 18 18 19 19 20 20 21 22 22 22 22 21 21 20 19 19 17 16 14 12 11 9
10 10 10 11 11 11 12 12 12 13 14 15 16 16 16 17 18 18 18 19 19 20 21 22 22 22 21 21 21 21 20 19 18 16 15 12 11 9
11 11 12 12 12 13 13 13 13 14 15 16 16 16 17 17 18 18 17 18 18 19 21 22 21 21 21 21 21 22 22 21 19 18 17 15 12 10
11 12 12 13 13 13 14 14 15 15 16 16 17 18 18 18 18 17 17 17 18 19 20 21 22 21 21 21 22 22 23 22 21 20 19 17 15 13
11 12 12 13 14 14 14 15 16 17 17 18 18 19 18 18 18 18 18 17 18 18 19 20 21 21 21 21 22 22 22 23 22 22 21 19 18 17
12 12 13 13 14 14 15 15 16 18 18 19 19 19 18 18 17 18 18 17 18 18 18 20 20 20 20 21 22 23 23 23 24 23 23 22 21 20
12 13 13 14 15 15 16 16 17 18 19 19 19 19 18 18 17 17 17 18 18 18 18 18 19 19 21 21 22 22 23 24 24 24 25 24 23 22
12 13 14 14 15 16 17 17 18 18 18 19 19 19 18 18 17 17 17 17 18 18 18 18 19 20 20 21 21 21 22 24 24 25 25 25 23 22
13 13 14 15 16 17 18 18 18 18 18 19 19 19 19 18 17 17 17 17 18 18 18 19 19 19 19 19 20 21 21 22 23 24 24 25 25 25
Wind_Direction
289 290 290 290 289 289 289 288 288 288 288 288 288 288 288 287 287 287 288 287 287 287 287 286 286 285 284 283 282 281 280 279 277 275 274 272 271 269
290 291 291 291 290 289 289 289 289 288 288 288 288 288 288 289 289 289 289 289 289 288 288 288 287 286 285 284 283 282 281 279 277 275 273 271 269 267
290 291 291 291 290 289 289 289 289 289 288 288 288 288 289 289 290 290 290 290 290 289 289 288 288 287 286 285 284 283 281 279 278 276 274 271 269 267
292 292 291 290 290 290 290 289 289 289 289 289 289 290 290 291 292 292 291 292 292 291 291 291 290 288 287 286 284 283 282 281 279 277 274 272 270 267
291 291 290 290 289 289 289 289 289 289 290 290 290 291 291 293 293 293 294 294 294 294 294 294 293 291 290 287 286 285 285 284 282 280 278 275 271 268
292 291 291 291 290 290 290 290 290 291 291 292 292 293 293 294 295 295 296 297 298 299 299 298 297 296 294 292 290 289 288 286 285 282 280 276 272 269
292 292 292 291 291 291 290 290 291 292 293 293 294 295 295 296 297 298 298 299 301 302 303 302 303 302 300 298 296 293 291 289 287 284 282 278 274 271
294 294 294 293 292 292 292 291 291 292 293 295 295 296 297 298 299 301 302 303 304 305 306 306 307 307 305 303 301 298 296 293 290 287 284 280 277 273
296 296 296 295 295 294 294 294 294 295 295 295 297 298 300 301 303 305 307 308 309 311 311 311 312 312 310 308 305 303 300 297 294 290 287 283 279 275
299 299 298 298 298 297 297 297 298 298 298 300 302 304 305 308 311 312 313 315 316 319 319 318 317 317 316 314 312 309 305 302 299 294 290 285 281 277
302 302 302 302 301 301 302 303 305 306 308 311 313 315 317 320 322 323 323 324 324 324 326 326 325 324 322 321 319 316 312 309 306 301 296 290 284 279
311 310 310 309 309 311 312 313 314 318 323 326 329 332 333 333 332 332 331 330 330 329 329 329 329 328 326 324 323 322 319 317 314 310 304 298 291 285
320 320 320 321 322 324 324 327 331 335 338 340 341 342 342 340 339 338 337 336 336 335 334 334 335 335 334 332 330 329 328 326 323 319 314 307 299 291
330 331 333 337 341 343 345 347 349 349 349 350 349 348 347 345 343 341 341 341 341 342 342 343 343 343 343 342 340 337 336 335 334 329 324 318 311 304
346 351 358 3 5 6 5 4 4 2 359 357 354 352 350 349 347 345 346 347 348 350 350 350 351 352 352 352 351 350 348 347 346 344 341 336 328 319
15 20 21 22 22 21 19 17 14 10 6 2 359 356 354 352 351 351 352 353 355 357 358 359 359 0 1 2 5 7 6 6 4 2 1 357 351 344
31 32 32 31 28 26 23 20 16 12 8 4 1 360 358 356 355 355 357 359 1 2 4 5 7 9 12 15 17 19 19 19 19 19 19 18 17 15
37 37 34 31 29 27 24 21 16 13 10 8 5 3 2 2 2 2 2 4 6 8 10 13 15 18 21 24 24 25 26 28 29 29 29 30 32 34
39 37 35 33 31 28 25 21 18 15 12 9 7 6 5 7 8 9 10 12 13 14 17 19 22 26 28 29 30 32 34 35 36 37 37 38 41 43
40 37 35 32 29 25 22 20 18 15 12 11 10 10 12 13 14 15 17 18 19 21 23 25 28 32 35 35 37 39 39 40 41 42 42 45 48 51
39 37 34 30 26 23 21 18 15 14 13 14 15 16 17 18 19 20 21 23 25 27 29 30 33 37 40 41 41 43 43 42 44 46 46 48 52 55
36 34 31 28 26 22 19 16 15 16 17 18 19 21 22 22 24 25 26 28 30 33 35 36 38 41 43 44 45 46 46 46 48 49 49 50 54 57
36 33 31 28 24 21 21 20 20 22 22 23 24 25 26 26 28 30 32 34 36 38 39 40 42 44 45 46 47 47 48 48 49 50 51 53 56 59
Height
5765 5761 5758 5754 5750 5746 5742 5738 5735 5731 5726 5720 5714 5709 5704 5700 5695 5691 5686 5681 5676 5671 5666 5661 5657 5652 5648 5644 5641 5637 5634 5631 5628 5627 5625 5625 5625 5626
5751 5747 5743 5739 5734 5730 5725 5721 5717 5713 5709 5703 5697 5692 5686 5682 5677 5672 5667 5662 5657 5652 5647 5642 5637 5633 5629 5624 5621 5617 5614 5611 5608 5606 5605 5605 5605 5605
5736 5731 5727 5722 5717 5713 5708 5703 5699 5695 5691 5686 5680 5675 5669 5664 5660 5654 5649 5644 5639 5633 5629 5624 5619 5615 5610 5606 5603 5599 5596 5593 5590 5588 5586 5586 5586 5586
5719 5714 5709 5704 5699 5694 5690 5685 5681 5677 5673 5669 5663 5658 5652 5648 5643 5638 5632 5626 5622 5617 5612 5607 5602 5598 5593 5589 5585 5582 5579 5576 5573 5571 5570 5569 5568 5568
5702 5697 5692 5687 5682 5677 5672 5668 5664 5660 5656 5653 5647 5642 5637 5632 5628 5623 5617 5612 5607 5602 5597 5592 5587 5583 5578 5574 5571 5567 5564 5562 5559 5557 5555 5553 5553 5552
5686 5680 5675 5670 5665 5660 5656 5652 5648 5644 5640 5636 5632 5627 5622 5617 5614 5610 5605 5599 5594 5589 5584 5579 5575 5570 5566 5562 5559 5555 5552 5549 5546 5543 5541 5540 5539 5538
5669 5663 5658 5653 5648 5644 5640 5637 5633 5630 5626 5622 5618 5614 5610 5606 5602 5598 5594 5589 5583 5579 5574 5569 5565 5560 5556 5552 5548 5544 5541 5537 5534 5532 5529 5528 5526 5526
5653 5647 5641 5637 5632 5628 5625 5622 5620 5617 5614 5610 5607 5603 5600 5596 5592 5588 5584 5580 5576 5572 5566 5561 5556 5552 5547 5543 5539 5535 5531 5527 5524 5521 5519 5517 5515 5514
5638 5632 5627 5623 5619 5616 5613 5611 5609 5606 5604 5601 5598 5595 5591 5588 5584 5580 5576 5572 5569 5565 5560 5555 5550 5545 5540 5535 5531 5527 5522 5518 5515 5512 5509 5507 5505 5504
5626 5620 5616 5612 5609 5606 5604 5602 5600 5598 5596 5594 5591 5588 5585 5581 5578 5575 5571 5567 5563 5558 5554 5550 5544 5539 5534 5529 5524 5519 5515 5511 5507 5503 5500 5498 5496 5495
5615 5611 5607 5604 5602 5599 5598 5596 5594 5593 5591 5588 5586 5583 5580 5577 5573 5570 5567 5563 5558 5554 5549 5544 5539 5534 5528 5523 5518 5513 5509 5504 5500 5496 5492 5489 5487 5486
5608 5604 5601 5599 5597 5595 5594 5592 5591 5589 5587 5585 5582 5580 5577 5574 5570 5567 5563 5559 5555 5550 5545 5540 5535 5530 5524 5518 5513 5508 5503 5498 5494 5490 5486 5483 5480 5478
5603 5600 5598 5596 5594 5593 5592 5590 5589 5587 5585 5582 5580 5577 5574 5571 5567 5564 5560 5556 5551 5547 5542 5537 5531 5526 5520 5514 5509 5504 5499 5494 5489 5485 5481 5477 5475 5473
5601 5599 5597 5595 5593 5592 5591 5589 5587 5586 5583 5581 5578 5575 5572 5569 5565 5561 5557 5553 5549 5544 5539 5534 5528 5523 5517 5511 5506 5500 5495 5490 5485 5481 5477 5474 5471 5469
5601 5599 5597 5595 5593 5592 5590 5589 5587 5585 5583 5580 5577 5574 5571 5567 5564 5560 5556 5551 5547 5542 5537 5532 5526 5521 5515 5510 5504 5498 5493 5488 5483 5479 5474 5471 5468 5466
5602 5600 5598 5596 5594 5593 5591 5589 5587 5585 5583 5580 5577 5573 5570 5566 5562 5558 5554 5550 5545 5541 5536 5531 5525 5520 5514 5509 5503 5498 5492 5487 5482 5478 5474 5470 5467 5465
5603 5601 5600 5598 5596 5594 5592 5590 5588 5586 5583 5580 5576 5573 5569 5565 5561 5557 5553 5549 5545 5540 5536 5530 5525 5520 5514 5509 5504 5499 5494 5489 5484 5479 5475 5471 5468 5465
5606 5604 5602 5600 5598 5596 5594 5592 5589 5586 5583 5580 5576 5572 5568 5564 5560 5556 5553 5549 5545 5541 5536 5531 5526 5521 5516 5511 5507 5502 5497 5491 5487 5482 5478 5474 5471 5468
5609 5607 5605 5603 5601 5598 5596 5593 5590 5587 5584 5580 5576 5572 5568 5564 5560 5556 5552 5549 5545 5541 5537 5533 5528 5523 5519 5515 5510 5505 5500 5496 5491 5486 5482 5478 5474 5471
5611 5609 5607 5605 5603 5600 5597 5594 5591 5588 5584 5580 5576 5572 5568 5564 5561 5557 5553 5550 5546 5543 5539 5535 5531 5527 5522 5518 5514 5509 5505 5500 5496 5491 5487 5483 5479 5477
5613 5611 5609 5607 5605 5602 5599 5596 5592 5589 5585 5581 5577 5573 5569 5566 5562 5558 5555 5551 5548 5544 5541 5537 5534 5530 5526 5522 5518 5514 5510 5506 5501 5497 5493 5489 5486 5483
5616 5614 5612 5609 5607 5604 5600 5597 5594 5590 5586 5583 5579 5575 5571 5567 5564 5560 5557 5553 5550 5547 5544 5540 5537 5533 5530 5527 5523 5519 5516 5512 5508 5503 5500 5497 5493 5490
5618 5616 5614 5611 5609 5605 5602 5599 5595 5592 5588 5584 5580 5577 5573 5570 5566 5563 5559 5556 5553 5550 5547 5544 5540 5537 5534 5531 5528 5524 5521 5518 5514 5511 5507 5504 5500 5497